Location: Los Gatos B&B
(42.6926°N, 77.0646°W)
Time: 16:41:37
(UTC-04:00)

Daily predictions for brighter satellites

Satellite Brightness Start Highest point End
(mag) Time Altitude Azimuth Time Altitude Azimuth Time Altitude Azimuth
Milstar 3 Cent rocket 4.3 21:20:26 10° WSW 21:26:17 29° S 21:36:19 10° SE
Okean 3 Rocket 3.9 21:22:57 10° SSE 21:27:18 51° E 21:31:39 10° NNE
ERS-1 Rocket 3.3 21:22:54 10° SSE 21:27:46 52° ENE 21:32:40 10° N
ATLAS 5 CENTAUR R/B 1.8 21:25:37 10° SSW 21:30:11 64° ESE 21:35:10 10° NE
Cosmos 1939 Rocket 3.4 21:28:29 10° S 21:32:26 60° W 21:36:28 10° NNW
YAOGAN 6 2.6 21:29:04 10° SSE 21:32:41 88° ENE 21:36:24 10° NNW
H-2A R/B 3.4 21:30:12 10° ESE 21:34:34 26° ENE 21:39:01 10° N
Cosmos 1726 3.8 21:32:46 10° NNE 21:35:25 18° ENE 21:38:02 10° ESE
Cosmos 1340 Rocket 3.0 21:34:58 10° SSW 21:38:59 76° W 21:43:04 10° N
Cosmos 1184 Rocket 3.5 21:35:59 10° SSW 21:39:17 58° WNW 21:42:38 10° N
Cosmos 1818 3.6 21:34:27 10° NNW 21:39:57 86° NE 21:45:22 10° SSE
Cosmos 2237 Rocket 3.6 21:36:36 10° NW 21:41:38 34° WSW 21:46:39 10° SSW
Cosmos 1741 Rocket 4.0 21:36:47 10° SSW 21:42:06 76° ESE 21:47:24 10° NNE
NOSS 3-4 (A) 4.4 21:35:29 10° NW 21:42:22 56° WSW 21:49:40 10° SSE
NOSS 3-4 (C) 4.4 21:35:34 10° NW 21:42:28 56° WSW 21:49:47 10° SSE
Cosmos 1766 Rocket 4.2 21:38:56 10° SSE 21:42:51 35° E 21:46:48 10° NNE
Terra 3.8 21:41:47 10° E 21:44:26 15° ENE 21:47:07 10° NNE
Cosmos 1603 4.4 21:43:42 10° NNW 21:49:05 43° ENE 21:53:56 12° SE
USA 245 4.0 21:46:50 13° SE 21:49:36 37° ENE 21:53:27 10° N
Resurs 01 Rocket 4.3 21:50:54 10° SW 21:53:19 14° W 21:55:46 10° WNW
SL-08 RB Rocket 4.3 21:49:54 12° SE 21:53:49 42° ENE 21:58:11 10° N
Cosmos 2228 Rocket 4.4 21:52:28 10° NNE 21:56:24 27° ENE 21:59:30 14° SE
Cosmos 2227 Rocket 4.2 21:52:19 10° WSW 21:57:24 33° NW 22:02:30 10° N
H-2A R/B 4.1 21:57:31 10° E 21:59:50 14° ENE 22:02:08 10° NNE
Cosmos 1674 2.6 21:57:00 10° S 22:00:47 88° WNW 22:04:33 10° N
Helios 1B rocket 4.0 21:58:13 10° N 22:02:04 38° WNW 22:05:54 10° SW
Cosmos 1459 Rocket 4.0 21:55:51 10° N 22:02:12 85° E 22:08:24 10° S
H-2A ROCKET BODY 3.9 22:00:59 10° S 22:03:53 15° SE 22:09:03 10° ESE
Cosmos 2084 3.4 22:00:17 10° SW 22:04:17 76° NW 22:08:08 10° NE
Cosmos 1908 3.4 22:00:28 10° NNW 22:04:21 74° W 22:08:10 10° S
Cosmos 2100 Rocket 4.1 21:58:45 10° N 22:05:05 86° W 22:11:27 10° S
Cosmos 1943 4.4 22:00:13 10° N 22:05:11 30° NE 22:09:32 13° ESE
SL-16 R/B 2.8 22:00:32 10° NNW 22:06:01 52° WSW 22:11:29 10° S
ARGOS 3.2 22:01:30 12° SSE 22:06:31 74° ENE 22:11:56 10° N
MetOp-A 4.2 22:01:23 10° SSE 22:06:45 87° WSW 22:12:08 10° NNW
Cosmos 2061 Rocket 4.1 22:02:38 10° N 22:09:04 86° E 22:15:28 10° S
ERBS 3.8 22:08:18 10° NNW 22:11:19 29° NE 22:13:54 13° E
KORONAS-FOTON 3.7 22:10:50 10° S 22:14:38 89° E 22:18:27 10° N
Cosmos 2173 Rocket 4.1 22:10:27 10° N 22:16:36 77° W 22:22:49 10° S
Cosmos 2123 Rocket 4.1 22:11:01 11° SSE 22:16:44 55° E 22:22:46 10° NNE
Cosmos 1814 Rocket 4.4 22:12:33 10° N 22:17:47 51° ENE 22:21:25 19° SE
SPOT 1/Viking Rocket 3.5 22:25:32 19° SSE 22:29:19 80° ENE 22:34:30 10° NNW
Cosmos 841 Rocket 4.3 22:24:25 10° N 22:29:23 40° ENE 22:32:30 20° ESE
Cosmos 1242 Rocket 4.0 22:28:12 10° NNW 22:31:36 34° W 22:34:53 11° SSW
Cosmos 1763 Rocket 3.8 22:27:00 10° N 22:32:02 52° ENE 22:35:00 23° SE
Cosmos 220 Rocket 4.1 22:30:12 16° S 22:33:33 56° ESE 22:37:51 10° NNE
Cosmos 1802 Rocket 4.4 22:32:12 10° NNW 22:38:13 60° W 22:43:58 11° S
Cosmos 1725 Rocket 4.0 22:32:48 10° N 22:39:06 82° E 22:43:35 20° S
SPOT 5 3.4 22:37:42 16° S 22:41:26 58° W 22:46:28 10° NNW
Cosmos 2227 4.4 22:36:07 10° SSW 22:41:50 76° WNW 22:47:34 10° NNE
Cosmos 371 Rocket 3.2 22:38:15 10° NNW 22:43:06 81° ENE 22:45:45 27° SSE
Cosmos 2058 3.6 22:41:54 28° SE 22:43:21 38° E 22:47:15 10° NNE
Lacrosse 5 1.8 22:38:51 10° NW 22:43:56 81° SW 22:46:42 27° SE
Cosmos 1408 Rocket 4.3 22:39:57 10° SSW 22:44:07 49° WNW 22:48:20 10° N
deb Chang Zheng 4 4.4 22:44:35 10° NNE 22:48:32 32° E 22:49:38 28° SE
Meteor 1-27 4.4 22:44:11 10° N 22:49:57 61° ENE 22:53:07 27° SSE
Tiangong 1 0.6 22:52:01 10° W 22:54:49 88° NNE 22:55:09 66° E
CZ-4C R/B 4.0 22:56:27 13° E 22:56:27 13° E 22:58:15 10° ENE
Abrixas rocket 2.3 22:52:33 10° WNW 22:55:48 71° NNE 22:56:48 40° E
RESURS DK-1 2.9 22:52:12 10° NW 22:56:16 51° WSW 22:58:06 28° S
USA 234 3.3 22:52:29 10° NE 22:59:03 82° NW 23:05:36 10° SW
EO 1 Delta rocket 4.5 22:59:49 20° SSW 23:02:57 51° W 23:07:27 10° NNW
Cosmos 1500 Rocket 3.5 23:01:39 27° S 23:04:06 88° WNW 23:08:34 10° N
Cosmos 2151 2.9 23:02:31 33° S 23:04:24 78° E 23:08:43 10° N
SL-14 R/B 4.0 23:02:08 18° SSW 23:04:54 50° W 23:08:46 10° N
Cosmos 1626 2.2 23:05:11 46° SE 23:05:54 56° E 23:09:34 10° NNE
Landsat 7 4.0 23:04:12 28° S 23:06:41 66° WSW 23:11:27 10° NNW
Cosmos 2263 Rocket 2.1 23:04:26 24° S 23:07:48 64° ESE 23:13:21 10° NNE
Cosmos 1300 3.8 23:04:52 10° NNW 23:08:28 39° W 23:10:18 23° SW
Cosmos 1503 Rocket 4.2 23:08:11 33° SSE 23:10:03 49° ESE 23:15:03 10° NNE
Cosmos 1726 3.9 23:07:36 10° NNW 23:10:44 26° W 23:12:45 17° SW
H-2A R/B 3.0 23:10:15 19° SSW 23:13:43 44° W 23:18:53 10° NNW
CARTOSAT-1 3.6 23:12:29 37° S 23:14:08 76° WSW 23:18:28 10° NNW
ATLAS 5 CENTAUR R/B 4.4 23:11:33 10° W 23:15:21 23° NW 23:19:28 10° NNE
CZ-4 R/B 3.8 23:16:38 10° NNE 23:21:29 67° ESE 23:23:08 40° S
Terra 2.0 23:19:37 34° S 23:21:38 67° WSW 23:26:23 10° NNW
Cosmos 1805 Rocket 3.9 23:22:29 41° ESE 23:23:08 44° E 23:27:15 10° NNE
Cosmos 1633 Rocket 4.2 23:28:53 28° E 23:29:05 28° E 23:32:47 10° NNE
CZ-4B R/B 3.6 23:25:14 10° NNE 23:30:31 66° ESE 23:32:19 40° S
SL-19 R/B 4.2 23:25:50 10° NNE 23:31:10 83° WNW 23:34:17 27° SSW
Cosmos 2233 Rocket 4.2 23:26:13 10° NNW 23:32:21 63° W 23:35:40 28° SSW
Cosmos 540 Rocket 3.5 23:29:17 10° NNW 23:34:27 70° ENE 23:36:05 43° SE
H-2A R/B 2.4 23:34:10 41° SSW 23:35:24 57° WSW 23:39:37 10° NNW
Cosmos 1151 Rocket 3.9 23:31:57 10° NNW 23:36:06 42° W 23:37:43 29° SW
CZ-2C R/B 4.3 23:37:55 25° ESE 23:40:17 35° ENE 23:45:24 10° N
Cosmos 1844 Rocket 3.8 23:41:56 26° ESE 23:42:09 26° ESE 23:46:42 10° NE
Cosmos 1455 2.1 23:38:22 10° N 23:42:15 76° W 23:42:40 66° SSW
IGS 5A 4.5 23:41:12 30° SW 23:42:24 37° W 23:46:17 10° NNW
Cosmos 1869 3.5 23:40:00 10° N 23:43:52 52° E 23:44:06 51° E
Cosmos 304 Rocket 3.7 23:41:58 10° NNW 23:46:47 77° WSW 23:47:54 52° S
ERBS 3.9 23:44:57 10° WNW 23:47:11 26° WSW 23:47:11 26° WSW
Spot 4 3.9 23:47:15 46° S 23:48:38 71° WSW 23:53:31 10° NNW
Cosmos 1943 3.9 23:44:04 10° NW 23:49:21 42° WSW 23:51:21 31° SSW
CZ-4C R/B 3.4 23:49:57 63° S 23:50:38 88° W 23:55:02 10° NNW
Cosmos 2242 Rocket 4.4 23:49:26 10° N 23:53:44 38° ENE 23:54:26 35° E
Cosmos 1354 Rocket 4.2 23:51:23 29° SW 23:54:03 67° WNW 23:59:17 10° NNE
Cosmos 1400 Rocket 4.2 23:55:02 27° E 23:55:02 27° E 23:58:13 10° NNE
